FW6834 Weather Reports


Display with metric or nautical units.
time (UTC)temp
F
wind
direction
speed
MPH
gust
MPH
rain 1hr
in
rain 24hr
in
rain mn
in
humidity
%
barometer
mb
20260509223603 86 129 4.0 10.0 0.00 0.00 0.00 32 1048.1
20260509222102 86 99 5.0 10.0 0.00 0.00 0.00 32 1048.4
20260509220603 87 115 6.0 8.0 0.00 0.00 0.00 30 1048.4
20260509215102 87 86 6.0 9.0 0.00 0.00 0.00 31 1048.4
20260509213602 88 130 4.0 7.0 0.00 0.00 0.00 30 1048.8
20260509212102 87 38 7.0 8.0 0.00 0.00 0.00 30 1048.8
20260509205103 87 55 4.0 10.0 0.00 0.00 0.00 32 1049.1
20260509204102 87 38 6.0 9.0 0.00 0.00 0.00 30 1049.1
20260509202602 89 173 6.0 7.0 0.00 0.00 0.00 29 1049.4
20260509201102 87 153 7.0 8.0 0.00 0.00 0.00 31 1049.8
20260509195602 87 159 4.0 8.0 0.00 0.00 0.00 30 1049.8
20260509194102 89 148 5.0 8.0 0.00 0.00 0.00 30 1050.1
20260509192603 87 198 4.0 6.0 0.00 0.00 0.00 29 1050.1
20260509191102 87 153 4.0 8.0 0.00 0.00 0.00 30 1050.5
20260509185602 86 195 4.0 8.0 0.00 0.00 0.00 32 1050.5
20260509184102 85 148 3.0 9.0 0.00 0.00 0.00 33 1050.8
20260509182602 85 167 2.0 7.0 0.00 0.00 0.00 32 1050.8
20260509181102 86 92 3.0 5.0 0.00 0.00 0.00 31 1050.8
20260509175602 86 103 4.0 9.0 0.00 0.00 0.00 33 1051.1
20260509174103 85 226 7.0 7.0 0.00 0.00 0.00 33 1051.5
20260509173102 86 287 6.0 8.0 0.00 0.00 0.00 35 1051.5
20260509171602 85 154 6.0 7.0 0.00 0.00 0.00 35 1051.5
20260509164603 80 111 4.0 7.0 0.00 0.00 0.00 48 1051.8
20260509163102 79 138 4.0 8.0 0.00 0.00 0.00 54 1052.2
20260509161603 77 115 3.0 6.0 0.00 0.00 0.00 60 1052.2
20260509154602 74 162 4.0 5.0 0.00 0.00 0.00 64 1052.2
20260509153102 74 147 3.0 6.0 0.00 0.00 0.00 61 1051.8
20260509151603 75 109 4.0 5.0 0.00 0.00 0.00 55 1051.8
20260509144602 74 82 4.0 4.0 0.00 0.00 0.00 66 1051.5
20260509143302 73 96 0.0 0.0 0.00 0.00 0.00 67 1051.8
20260509141603 71 262 0.0 0.0 0.00 0.00 0.00 70 1051.8
20260509135102 69 91 0.0 0.0 0.00 0.00 0.00 73 1051.8
20260509133603 67 154 0.0 0.0 0.00 0.00 0.00 79 1051.5
20260509132602 65 128 0.0 0.0 0.00 0.00 0.00 86 1051.5
20260509125602 60 186 0.0 0.0 0.00 0.00 0.00 93 1051.1
20260509124102 59 145 0.0 0.0 0.00 0.00 0.00 93 1050.8
20260509102603 55 152 0.0 0.0 0.00 0.00 0.00 92 1050.5
20260509101102 56 208 0.0 0.0 0.00 0.00 0.00 92 1050.5
20260509095602 56 149 0.0 0.0 0.00 0.00 0.00 92 1050.8
20260509094102 56 189 0.0 0.0 0.00 0.00 0.00 92 1050.8
20260509092602 56 160 0.0 0.0 0.00 0.00 0.00 92 1050.8
20260509091102 57 150 0.0 0.0 0.00 0.00 0.00 91 1050.8
20260509085602 57 286 0.0 0.0 0.00 0.00 0.00 91 1050.8
20260509084102 57 277 0.0 0.0 0.00 0.00 0.00 91 1050.5
20260509081102 58 143 0.0 0.0 0.00 0.00 0.00 90 1050.8
20260509074103 59 109 0.0 0.0 0.00 0.00 0.00 89 1051.1
20260509072603 59 136 0.0 0.0 0.00 0.00 0.00 89 1051.1
20260509071103 60 140 0.0 0.0 0.00 0.00 0.00 88 1051.1
20260509065602 60 188 0.0 0.0 0.00 0.00 0.00 87 1051.1
20260509054602 62 107 0.0 3.0 0.00 0.00 0.00 86 1051.1
20260509045602 63 97 3.0 5.0 0.00 0.00 0.23 85 1051.1
20260509044102 63 146 4.0 4.0 0.00 0.00 0.23 85 1051.5
20260509041102 63 155 0.0 0.0 0.00 0.00 0.23 86 1051.1
20260509034102 63 124 0.0 4.0 0.00 0.00 0.23 87 1050.8
20260509032602 63 153 0.0 0.0 0.00 0.00 0.23 86 1050.1
20260509024102 65 105 2.0 4.0 0.00 0.00 0.23 85 1049.4
20260509022602 65 136 0.0 5.0 0.00 0.00 0.23 83 1049.1
20260509015602 66 168 0.0 2.0 0.00 0.00 0.23 79 1048.4
20260509014602 67 253 1.0 1.0 0.00 0.00 0.23 77 1048.1
20260509012102 69 210 2.0 3.0 0.00 0.00 0.23 74 1048.1
20260509010603 69 240 3.0 6.0 0.00 0.00 0.23 74 1048.1
20260509005102 71 231 3.0 3.0 0.00 0.00 0.23 73 1047.7
20260509002103 71 180 5.0 5.0 0.00 0.00 0.23 72 1046.7
20260508234102 72 193 6.0 9.0 0.23 0.00 0.23 74 1046.4
20260508231602 68 125 3.0 3.0 0.23 0.00 0.23 75 1046.4
20260508224602 82 207 0.0 4.0 0.00 0.00 0.00 45 1046.7